CAPE
2 2 0 0 0 0 0 0 0 0 0 0 0 0 0 0 0 0 0 0 0 0 15 2 7 0 0 0 1 286 140 38 89 23 31 15 85 193 140 75 69 3 80 194 392
2 1 0 0 0 0 0 0 0 0 0 0 0 0 0 0 0 0 0 0 0 4 0 0 0 1 0 0 83 344 93 113 252 33 19 59 165 392 111 86 76 64 98 216 368
0 1 2 2 1 0 0 0 0 0 0 0 0 0 0 0 0 0 0 0 0 310 0 0 0 0 0 37 76 331 234 367 201 113 13 102 127 214 116 96 55 53 97 185 222
0 0 0 0 0 0 0 0 0 0 0 0 0 0 0 0 0 0 0 2 674 0 0 0 0 0 0 14 485 407 695 577 215 46 131 233 145 192 259 201 67 43 70 113 172
0 0 0 0 0 0 0 0 0 0 0 0 0 0 0 0 0 0 441 180 0 0 0 0 0 0 0 275 531 403 345 212 131 107 101 75 234 199 220 225 83 51 64 62 69
0 0 0 0 0 0 0 0 0 0 0 0 0 0 0 0 0 0 0 0 0 0 0 0 0 0 428 466 362 318 341 236 112 38 166 161 79 95 122 193 98 54 66 57 22
0 0 0 0 0 0 0 0 0 0 0 0 0 0 0 0 0 0 0 0 0 0 0 0 0 0 346 320 279 225 131 242 336 108 161 16 25 100 38 157 107 65 52 24 0
0 0 0 0 0 0 0 0 0 0 0 0 0 0 0 0 0 0 0 0 0 0 0 0 0 0 433 179 0 0 82 195 327 257 299 92 25 31 30 60 128 142 67 17 44
0 0 0 0 0 0 0 0 0 0 0 0 0 0 0 0 0 0 0 0 0 0 0 0 0 35 247 80 0 12 2 149 338 346 197 76 6 39 48 45 79 80 70 60 53
0 0 0 0 0 0 0 0 0 0 0 0 0 0 0 0 0 0 0 0 0 0 0 0 0 0 166 62 0 7 17 52 213 383 298 76 20 8 1 16 58 15 10 66 55
0 0 0 0 0 0 0 0 0 0 0 0 0 0 0 0 0 0 0 0 0 0 0 0 0 0 0 102 23 52 23 60 572 658 310 160 68 38 8 5 27 89 71 64 28
0 0 0 0 0 0 0 0 0 0 0 0 0 0 0 0 0 0 0 0 0 0 0 0 0 0 0 74 66 3 20 64 139 678 371 253 217 212 154 8 0 49 45 12 10
0 0 0 0 0 0 0 0 0 0 0 0 0 0 0 0 0 0 0 0 0 0 0 0 0 7 13 134 76 28 76 50 18 310 481 280 87 130 137 24 9 55 97 21 18
0 0 0 0 0 0 0 0 0 0 0 0 0 0 0 0 0 0 0 0 0 0 0 0 0 0 172 144 125 65 73 213 327 339 122 98 32 1 3 3 11 38 127 145 42
0 0 0 0 0 0 0 0 0 0 0 0 0 0 0 0 0 0 0 0 0 0 0 0 0 133 215 162 151 140 102 130 636 285 291 98 30 25 0 0 28 54 139 162 90
0 0 0 0 0 0 0 0 0 0 0 0 0 0 0 0 0 0 0 0 0 0 0 0 0 170 113 179 178 103 69 185 677 403 215 55 17 1 0 0 0 5 163 187 197
0 0 0 0 0 0 0 0 0 0 0 0 0 0 0 0 0 0 0 0 0 0 0 0 0 13 136 67 84 132 137 4 30 131 8 0 21 8 0 4 0 3 53 184 202
0 0 0 0 0 0 0 0 0 0 0 0 0 0 0 0 0 0 0 0 0 0 0 0 0 0 0 1 0 5 6 0 0 0 4 36 23 1 23 28 24 24 101 161 311
0 0 0 0 0 0 0 0 0 0 0 0 0 0 0 0 0 0 0 0 0 0 0 0 0 0 0 0 0 0 0 0 0 0 0 10 8 31 90 83 87 73 3 56 341
0 0 0 0 0 0 0 0 0 0 0 0 0 0 0 0 0 0 0 0 0 0 0 0 0 0 0 0 0 0 0 0 0 0 1 27 45 114 164 373 411 277 220 24 78
0 0 0 0 0 0 0 0 0 0 0 0 0 0 0 0 0 0 0 0 0 0 0 0 0 0 0 0 0 0 0 0 0 0 0 20 41 31 78 147 382 446 534 429 383
0 0 0 0 0 0 0 0 0 0 0 0 0 0 0 0 0 0 0 0 0 0 0 0 7 1 0 0 0 0 0 0 0 0 0 54 29 55 38 82 98 320 469 576 563
0 0 0 0 0 0 0 0 0 0 0 0 0 0 0 0 0 0 0 0 0 0 0 2 0 0 0 0 2 4 69 101 77 9 0 3 37 151 114 175 132 110 253 603 829
0 0 0 0 0 0 0 0 0 0 0 0 0 0 0 0 0 0 0 0 0 0 98 0 0 0 0 0 4 18 55 63 57 69 27 4 52 142 237 221 197 270 330 675 960
0 0 0 0 0 0 0 0 0 0 0 0 0 0 0 0 0 0 0 0 0 0 3 4 0 0 0 0 2 10 20 34 88 78 46 21 138 102 285 206 268 433 498 710 832
0 0 0 0 0 0 0 0 0 0 0 0 0 0 0 0 0 0 0 0 2 1 4 10 2 0 0 0 0 0 0 7 25 46 7 14 73 75 337 406 598 689 726 717 723
0 0 0 0 0 0 0 0 0 0 0 0 0 0 0 0 0 0 0 0 0 5 5 8 23 8 0 0 0 0 0 0 1 14 16 3 143 3 0 319 451 394 697 726 720
CIN
-0 -0 -0 -0 -0 -0 -0 -0 -0 -0 -0 -0 -0 -0 -0 -0 -0 -0 -0 -0 -0 -0 -352 -6 -38 -0 -0 -0 -38 -89 -21 -39 -104 -106 -88 -102 -52 -46 -55 -57 -84 -6 -76 -89 -72
-0 -0 -0 -0 -0 -0 -0 -0 -0 -0 -0 -0 -0 -0 -0 -0 -0 -0 -0 -0 -0 -168 -0 -0 -0 -4 -0 -0 -86 -29 -31 -81 -119 -31 -68 -88 -54 -33 -73 -72 -50 -114 -135 -87 -54
-0 -0 -0 -0 -0 -0 -0 -0 -0 -0 -0 -0 -0 -0 -0 -0 -0 -0 -0 -0 -0 -485 -0 -0 -0 -0 -0 -113 -112 -80 -77 -90 -119 -96 -24 -72 -55 -47 -64 -56 -110 -159 -130 -89 -74
-0 -0 -0 -0 -0 -0 -0 -0 -0 -0 -0 -0 -0 -0 -0 -0 -0 -0 -0 -73 -411 -0 -0 -0 -0 -0 -0 -68 -56 -61 -48 -60 -28 -136 -78 -50 -57 -39 -39 -55 -114 -128 -160 -107 -74
-0 -0 -0 -0 -0 -0 -0 -0 -0 -0 -0 -0 -0 -0 -0 -0 -0 -0 -479 -591 -0 -0 -0 -0 -0 -0 -0 -73 -69 -73 -70 -62 -70 -90 -86 -135 -54 -72 -76 -45 -114 -121 -124 -125 -107
-0 -0 -0 -0 -0 -0 -0 -0 -0 -0 -0 -0 -0 -0 -0 -0 -0 -0 -0 -0 -0 -0 -0 -0 -0 -0 -69 -21 -71 -98 -111 -84 -90 -64 -36 -57 -70 -83 -34 -72 -92 -110 -133 -129 -111
-0 -0 -0 -0 -0 -0 -0 -0 -0 -0 -0 -0 -0 -0 -0 -0 -0 -0 -0 -0 -0 -0 -0 -0 -0 -0 -60 -47 -82 -81 -71 -95 -59 -95 -48 -57 -38 -42 -89 -69 -73 -95 -104 -111 -0
-0 -0 -0 -0 -0 -0 -0 -0 -0 -0 -0 -0 -0 -0 -0 -0 -0 -0 -0 -0 -0 -0 -0 -0 -0 -0 -62 -58 -0 -0 -197 -84 -43 -63 -51 -74 -32 -42 -65 -54 -63 -66 -82 -89 -99
-0 -0 -0 -0 -0 -0 -0 -0 -0 -0 -0 -0 -0 -0 -0 -0 -0 -0 -0 -0 -0 -0 -0 -0 -0 -92 -190 -143 -0 -1 -22 -122 -46 -46 -84 -98 -27 -44 -72 -29 -43 -63 -73 -78 -81
-0 -0 -0 -0 -0 -0 -0 -0 -0 -0 -0 -0 -0 -0 -0 -0 -0 -0 -0 -0 -0 -0 -0 -0 -0 -0 -125 -75 -0 -8 -200 -141 -70 -69 -71 -70 -37 -37 -6 -18 -23 -109 -31 -119 -122
-0 -0 -0 -0 -0 -0 -0 -0 -0 -0 -0 -0 -0 -0 -0 -0 -0 -0 -0 -0 -0 -0 -0 -0 -0 -0 -0 -95 -42 -128 -103 -99 -46 -44 -68 -93 -96 -52 -88 -206 -43 -88 -80 -65 -156
-0 -0 -0 -0 -0 -0 -0 -0 -0 -0 -0 -0 -0 -0 -0 -0 -0 -0 -0 -0 -0 -0 -0 -0 -0 -0 -0 -194 -98 -73 -6 -143 -177 -91 -70 -114 -139 -127 -101 -214 -0 -145 -67 -85 -151
-0 -0 -0 -0 -0 -0 -0 -0 -0 -0 -0 -0 -0 -0 -0 -0 -0 -0 -0 -0 -0 -0 -0 -0 -0 -6 -18 -187 -131 -157 -78 -84 -101 -172 -103 -101 -80 -136 -120 -222 -240 -215 -147 -92 -54
-0 -0 -0 -0 -0 -0 -0 -0 -0 -0 -0 -0 -0 -0 -0 -0 -0 -0 -0 -0 -0 -0 -0 -0 -0 -0 -190 -162 -115 -99 -165 -98 -130 -153 -103 -88 -94 -8 -71 -142 -223 -186 -202 -98 -69
-0 -0 -0 -0 -0 -0 -0 -0 -0 -0 -0 -0 -0 -0 -0 -0 -0 -0 -0 -0 -0 -0 -0 -0 -0 -150 -157 -150 -114 -45 -148 -105 -103 -115 -69 -51 -150 -94 -0 -0 -178 -198 -244 -126 -68
-0 -0 -0 -0 -0 -0 -0 -0 -0 -0 -0 -0 -0 -0 -0 -0 -0 -0 -0 -0 -0 -0 -0 -0 -0 -191 -189 -118 -115 -40 -74 -96 -79 -77 -49 -100 -142 -31 -0 -0 -0 -417 -312 -151 -56
-0 -0 -0 -0 -0 -0 -0 -0 -0 -0 -0 -0 -0 -0 -0 -0 -0 -0 -0 -0 -0 -0 -0 -0 -0 -69 -150 -85 -102 -95 -49 -3 -11 -66 -26 -0 -153 -82 -0 -59 -0 -447 -326 -189 -94
-0 -0 -0 -0 -0 -0 -0 -0 -0 -0 -0 -0 -0 -0 -0 -0 -0 -0 -0 -0 -0 -0 -0 -0 -0 -0 -0 -6 -0 -11 -6 -0 -0 -0 -7 -157 -118 -83 -209 -108 -135 -373 -271 -168 -92
-0 -0 -0 -0 -0 -0 -0 -0 -0 -0 -0 -0 -0 -0 -0 -0 -0 -0 -0 -0 -0 -0 -0 -0 -0 -0 -0 -0 -0 -0 -0 -0 -0 -0 -24 -140 -141 -129 -127 -42 -63 -110 -97 -269 -137
-0 -0 -0 -0 -0 -0 -0 -0 -0 -0 -0 -0 -0 -0 -0 -0 -0 -0 -0 -0 -0 -0 -0 -0 -0 -0 -0 -0 -0 -0 -0 -0 -0 -0 -6 -113 -91 -71 -63 -55 -62 -73 -101 -402 -200
-0 -0 -0 -0 -0 -0 -0 -0 -0 -0 -0 -0 -0 -0 -0 -0 -0 -0 -0 -0 -0 -0 -0 -0 -0 -0 -0 -0 -0 -0 -0 -0 -0 -0 -0 -113 -106 -82 -69 -75 -46 -64 -47 -68 -20
-0 -0 -0 -0 -0 -0 -0 -0 -0 -0 -0 -0 -0 -0 -0 -0 -0 -0 -0 -0 -0 -0 -0 -0 -2 -4 -0 -0 -0 -0 -0 -0 -0 -0 -0 -80 -144 -97 -83 -51 -71 -52 -42 -31 -33
-0 -0 -0 -0 -0 -0 -0 -0 -0 -0 -0 -0 -0 -0 -0 -0 -0 -0 -0 -0 -0 -0 -0 -25 -0 -0 -1 -0 -18 -116 -39 -30 -23 -60 -0 -89 -152 -108 -104 -106 -89 -57 -53 -35 -17
-0 -0 -0 -0 -0 -0 -0 -0 -0 -0 -0 -0 -0 -0 -0 -0 -0 -0 -0 -0 -0 -0 -440 -3 -14 -0 -0 -0 -17 -31 -33 -13 -17 -44 -39 -68 -82 -97 -76 -103 -228 -187 -52 -44 -44
-0 -0 -0 -0 -0 -0 -0 -0 -0 -0 -0 -0 -0 -0 -0 -0 -0 -0 -0 -1 -0 -1 -4 -16 -0 -21 -0 -0 -4 -28 -15 -38 -65 -48 -44 -36 -68 -108 -84 -100 -136 -123 -76 -62 -64
-0 -0 -0 -0 -0 -0 -0 -0 -0 -0 -0 -0 -0 -0 -0 -0 -0 -0 -0 -0 -4 -60 -6 -13 -8 -0 -0 -0 -0 -0 -0 -48 -32 -52 -43 -46 -45 -71 -67 -52 -47 -45 -44 -70 -48
-0 -0 -0 -0 -0 -0 -0 -0 -0 -0 -0 -0 -0 -0 -0 -0 -0 -0 -0 -0 -0 -9 -52 -11 -11 -12 -2 -0 -0 -0 -0 -0 -18 -27 -24 -41 -46 -24 -0 -56 -50 -108 -75 -52 -66
Wind_Speed
nan nan nan nan nan nan nan nan nan nan nan nan nan nan nan nan nan nan nan nan nan nan nan nan nan nan nan nan nan 8 7 nan nan nan nan nan nan 5 10 nan nan nan nan 7 11
nan nan nan nan nan nan nan nan nan nan nan nan nan nan nan nan nan nan nan nan nan nan nan nan nan nan nan nan nan 7 nan 6 10 nan nan nan 4 8 6 nan nan nan nan 11 9
nan nan nan nan nan nan nan nan nan nan nan nan nan nan nan nan nan nan nan nan nan 15 nan nan nan nan nan nan nan 9 1 1 3 8 nan 3 12 5 12 nan nan nan nan 8 5
nan nan nan nan nan nan nan nan nan nan nan nan nan nan nan nan nan nan nan nan 17 nan nan nan nan nan nan nan 5 5 4 2 4 nan 6 10 12 8 10 5 nan nan nan 6 4
nan nan nan nan nan nan nan nan nan nan nan nan nan nan nan nan nan nan 19 24 nan nan nan nan nan nan nan 10 7 11 3 8 3 6 11 nan 10 8 12 5 nan nan nan nan nan
nan nan nan nan nan nan nan nan nan nan nan nan nan nan nan nan nan nan nan nan nan nan nan nan nan nan 13 12 12 8 10 8 6 nan 5 6 nan nan 8 7 nan nan nan nan nan
nan nan nan nan nan nan nan nan nan nan nan nan nan nan nan nan nan nan nan nan nan nan nan nan nan nan 11 9 8 11 11 5 7 10 4 nan nan 10 nan 2 1 nan nan nan nan
nan nan nan nan nan nan nan nan nan nan nan nan nan nan nan nan nan nan nan nan nan nan nan nan nan nan 12 6 nan nan nan 3 9 10 5 nan nan nan nan nan 5 5 nan nan nan
nan nan nan nan nan nan nan nan nan nan nan nan nan nan nan nan nan nan nan nan nan nan nan nan nan nan 7 nan nan nan nan 8 5 8 7 nan nan nan nan nan nan nan nan nan nan
nan nan nan nan nan nan nan nan nan nan nan nan nan nan nan nan nan nan nan nan nan nan nan nan nan nan 10 nan nan nan nan nan 4 8 7 nan nan nan nan nan nan nan nan nan nan
nan nan nan nan nan nan nan nan nan nan nan nan nan nan nan nan nan nan nan nan nan nan nan nan nan nan nan 2 nan nan nan nan 7 11 7 9 nan nan nan nan nan nan nan nan nan
nan nan nan nan nan nan nan nan nan nan nan nan nan nan nan nan nan nan nan nan nan nan nan nan nan nan nan nan nan nan nan nan 9 9 8 11 20 17 14 nan nan nan nan nan nan
nan nan nan nan nan nan nan nan nan nan nan nan nan nan nan nan nan nan nan nan nan nan nan nan nan nan nan 4 nan nan nan nan nan 11 7 8 nan 13 12 nan nan nan nan nan nan
nan nan nan nan nan nan nan nan nan nan nan nan nan nan nan nan nan nan nan nan nan nan nan nan nan nan 8 10 4 nan nan 16 3 4 7 nan nan nan nan nan nan nan 11 10 nan
nan nan nan nan nan nan nan nan nan nan nan nan nan nan nan nan nan nan nan nan nan nan nan nan nan 11 7 5 5 17 12 12 3 9 7 nan nan nan nan nan nan nan 7 4 nan
nan nan nan nan nan nan nan nan nan nan nan nan nan nan nan nan nan nan nan nan nan nan nan nan nan 2 11 6 9 15 nan 14 12 9 4 nan nan nan nan nan nan nan 6 3 6
nan nan nan nan nan nan nan nan nan nan nan nan nan nan nan nan nan nan nan nan nan nan nan nan nan nan 6 nan nan 17 20 nan nan 5 nan nan nan nan nan nan nan nan nan 4 3
nan nan nan nan nan nan nan nan nan nan nan nan nan nan nan nan nan nan nan nan nan nan nan nan nan nan nan nan nan nan nan nan nan nan nan nan nan nan nan nan nan nan 11 9 6
nan nan nan nan nan nan nan nan nan nan nan nan nan nan nan nan nan nan nan nan nan nan nan nan nan nan nan nan nan nan nan nan nan nan nan nan nan nan nan nan nan nan nan nan 14
nan nan nan nan nan nan nan nan nan nan nan nan nan nan nan nan nan nan nan nan nan nan nan nan nan nan nan nan nan nan nan nan nan nan nan nan nan 12 14 6 11 4 7 nan nan
nan nan nan nan nan nan nan nan nan nan nan nan nan nan nan nan nan nan nan nan nan nan nan nan nan nan nan nan nan nan nan nan nan nan nan nan nan nan nan 4 3 4 8 11 13
nan nan nan nan nan nan nan nan nan nan nan nan nan nan nan nan nan nan nan nan nan nan nan nan nan nan nan nan nan nan nan nan nan nan nan nan nan nan nan nan nan 3 2 12 13
nan nan nan nan nan nan nan nan nan nan nan nan nan nan nan nan nan nan nan nan nan nan nan nan nan nan nan nan nan nan nan 20 nan nan nan nan nan 16 17 14 20 23 19 13 19
nan nan nan nan nan nan nan nan nan nan nan nan nan nan nan nan nan nan nan nan nan nan nan nan nan nan nan nan nan nan nan nan nan nan nan nan nan 17 14 16 22 25 28 26 29
nan nan nan nan nan nan nan nan nan nan nan nan nan nan nan nan nan nan nan nan nan nan nan nan nan nan nan nan nan nan nan nan nan nan nan nan 20 19 18 20 19 20 21 26 28
nan nan nan nan nan nan nan nan nan nan nan nan nan nan nan nan nan nan nan nan nan nan nan nan nan nan nan nan nan nan nan nan nan nan nan nan nan nan 20 23 21 19 26 26 27
nan nan nan nan nan nan nan nan nan nan nan nan nan nan nan nan nan nan nan nan nan nan nan nan nan nan nan nan nan nan nan nan nan nan nan nan 14 nan nan 27 20 20 26 30 27
Wind_Direction
nan nan nan nan nan nan nan nan nan nan nan nan nan nan nan nan nan nan nan nan nan nan nan nan nan nan nan nan nan 271 295 nan nan nan nan nan nan 307 298 nan nan nan nan 293 301
nan nan nan nan nan nan nan nan nan nan nan nan nan nan nan nan nan nan nan nan nan nan nan nan nan nan nan nan nan 294 nan 15 345 nan nan nan 113 146 314 nan nan nan nan 292 298
nan nan nan nan nan nan nan nan nan nan nan nan nan nan nan nan nan nan nan nan nan 310 nan nan nan nan nan nan nan 288 35 160 314 314 nan 323 131 138 312 nan nan nan nan 308 293
nan nan nan nan nan nan nan nan nan nan nan nan nan nan nan nan nan nan nan nan 311 nan nan nan nan nan nan nan 275 229 215 262 314 nan 206 145 119 110 60 76 nan nan nan 323 2
nan nan nan nan nan nan nan nan nan nan nan nan nan nan nan nan nan nan 289 316 nan nan nan nan nan nan nan 254 272 264 250 266 239 330 252 nan 124 98 69 1 nan nan nan nan nan
nan nan nan nan nan nan nan nan nan nan nan nan nan nan nan nan nan nan nan nan nan nan nan nan nan nan 259 256 260 280 248 294 315 nan 341 44 nan nan 197 259 nan nan nan nan nan
nan nan nan nan nan nan nan nan nan nan nan nan nan nan nan nan nan nan nan nan nan nan nan nan nan nan 281 274 272 240 250 206 353 2 52 nan nan 195 nan 218 29 nan nan nan nan
nan nan nan nan nan nan nan nan nan nan nan nan nan nan nan nan nan nan nan nan nan nan nan nan nan nan 299 291 nan nan nan 127 337 350 331 nan nan nan nan nan 106 83 nan nan nan
nan nan nan nan nan nan nan nan nan nan nan nan nan nan nan nan nan nan nan nan nan nan nan nan nan nan 283 nan nan nan nan 281 162 33 348 nan nan nan nan nan nan nan nan nan nan
nan nan nan nan nan nan nan nan nan nan nan nan nan nan nan nan nan nan nan nan nan nan nan nan nan nan 233 nan nan nan nan nan 128 82 65 nan nan nan nan nan nan nan nan nan nan
nan nan nan nan nan nan nan nan nan nan nan nan nan nan nan nan nan nan nan nan nan nan nan nan nan nan nan 318 nan nan nan nan 124 119 90 66 nan nan nan nan nan nan nan nan nan
nan nan nan nan nan nan nan nan nan nan nan nan nan nan nan nan nan nan nan nan nan nan nan nan nan nan nan nan nan nan nan nan 167 149 99 110 106 85 74 nan nan nan nan nan nan
nan nan nan nan nan nan nan nan nan nan nan nan nan nan nan nan nan nan nan nan nan nan nan nan nan nan nan 236 nan nan nan nan nan 201 143 133 nan 73 109 nan nan nan nan nan nan
nan nan nan nan nan nan nan nan nan nan nan nan nan nan nan nan nan nan nan nan nan nan nan nan nan nan 201 160 187 nan nan 79 49 192 142 nan nan nan nan nan nan nan 77 354 nan
nan nan nan nan nan nan nan nan nan nan nan nan nan nan nan nan nan nan nan nan nan nan nan nan nan 255 213 158 172 83 343 25 25 221 187 nan nan nan nan nan nan nan 36 84 nan
nan nan nan nan nan nan nan nan nan nan nan nan nan nan nan nan nan nan nan nan nan nan nan nan nan 230 94 169 57 179 nan 233 218 231 174 nan nan nan nan nan nan nan 89 27 13
nan nan nan nan nan nan nan nan nan nan nan nan nan nan nan nan nan nan nan nan nan nan nan nan nan nan 61 nan nan 208 212 nan nan 224 nan nan nan nan nan nan nan nan nan 49 37
nan nan nan nan nan nan nan nan nan nan nan nan nan nan nan nan nan nan nan nan nan nan nan nan nan nan nan nan nan nan nan nan nan nan nan nan nan nan nan nan nan nan 37 21 39
nan nan nan nan nan nan nan nan nan nan nan nan nan nan nan nan nan nan nan nan nan nan nan nan nan nan nan nan nan nan nan nan nan nan nan nan nan nan nan nan nan nan nan nan 55
nan nan nan nan nan nan nan nan nan nan nan nan nan nan nan nan nan nan nan nan nan nan nan nan nan nan nan nan nan nan nan nan nan nan nan nan nan 134 149 252 163 281 70 nan nan
nan nan nan nan nan nan nan nan nan nan nan nan nan nan nan nan nan nan nan nan nan nan nan nan nan nan nan nan nan nan nan nan nan nan nan nan nan nan nan 317 143 331 12 71 54
nan nan nan nan nan nan nan nan nan nan nan nan nan nan nan nan nan nan nan nan nan nan nan nan nan nan nan nan nan nan nan nan nan nan nan nan nan nan nan nan nan 345 262 353 13
nan nan nan nan nan nan nan nan nan nan nan nan nan nan nan nan nan nan nan nan nan nan nan nan nan nan nan nan nan nan nan 245 nan nan nan nan nan 267 268 274 310 319 333 332 332
nan nan nan nan nan nan nan nan nan nan nan nan nan nan nan nan nan nan nan nan nan nan nan nan nan nan nan nan nan nan nan nan nan nan nan nan nan 289 285 288 298 301 307 317 328
nan nan nan nan nan nan nan nan nan nan nan nan nan nan nan nan nan nan nan nan nan nan nan nan nan nan nan nan nan nan nan nan nan nan nan nan 290 312 324 325 333 327 317 314 316
nan nan nan nan nan nan nan nan nan nan nan nan nan nan nan nan nan nan nan nan nan nan nan nan nan nan nan nan nan nan nan nan nan nan nan nan nan nan 301 304 310 325 307 306 305
nan nan nan nan nan nan nan nan nan nan nan nan nan nan nan nan nan nan nan nan nan nan nan nan nan nan nan nan nan nan nan nan nan nan nan nan 291 nan nan 323 325 323 319 315 319